This is the latest recevied weather packets stored in our database for station/object W0SS-13. If no packets are shown the sender has not sent any weather packets the latest 10 day(s).
| Time | Temp. | Humidity | Pressure | Rain* | Wind** | Luminosity | Snow |
|---|---|---|---|---|---|---|---|
| 1777827192 | 21.67° C | 47% | 1014.1 hPa | 0 mm | - | 753 W/m² | - |
| 1777826888 | 21.67° C | 49% | 1013.9 hPa | 0 mm | - | 744 W/m² | - |
| 1777826586 | 21.11° C | 49% | 1014.1 hPa | 0 mm | - | 739 W/m² | - |
| 1777826281 | 21.11° C | 51% | 1014 hPa | 0 mm | - | 731 W/m² | - |
| 1777825980 | 21.11° C | 49% | 1014.3 hPa | 0 mm | - | 724 W/m² | - |
| 1777825675 | 21.11° C | 49% | 1014.2 hPa | 0 mm | - | 715 W/m² | - |
| 1777825374 | 21.11° C | 49% | 1014.4 hPa | 0 mm | - | 705 W/m² | - |
| 1777825070 | 20.56° C | 49% | 1014.2 hPa | 0 mm | - | 696 W/m² | - |
| 1777824766 | 20.56° C | 51% | 1014.3 hPa | 0 mm | - | 685 W/m² | - |
| 1777824464 | 20° C | 50% | 1014.4 hPa | 0 mm | - | 677 W/m² | - |
| 1777824159 | 20° C | 51% | 1014.4 hPa | 0 mm | - | 669 W/m² | - |
| 1777823855 | 20° C | 51% | 1014.4 hPa | 0 mm | - | 653 W/m² | - |
| 1777823554 | 20° C | 50% | 1014.6 hPa | 0 mm | - | 647 W/m² | - |
| 1777823250 | 19.44° C | 53% | 1014.5 hPa | 0 mm | - | 636 W/m² | - |
| 1777822948 | 18.89° C | 51% | 1014.5 hPa | 0 mm | - | 626 W/m² | - |
| 1777822646 | 18.89° C | 51% | 1014.5 hPa | 0 mm | - | 612 W/m² | - |
| 1777822343 | 18.89° C | 51% | 1014.4 hPa | 0 mm | - | 596 W/m² | - |
| 1777822041 | 18.89° C | 52% | 1014.5 hPa | 0 mm | - | 596 W/m² | - |
| 1777821739 | 18.89° C | 53% | 1014.4 hPa | 0 mm | - | 579 W/m² | - |
| 1777821436 | 18.89° C | 52% | 1014.6 hPa | 0 mm | - | 564 W/m² | - |
| 1777821133 | 18.33° C | 53% | 1014.7 hPa | 0 mm | - | 548 W/m² | - |
| 1777820830 | 17.78° C | 53% | 1014.7 hPa | 0 mm | - | 534 W/m² | - |
| 1777820526 | 17.78° C | 53% | 1014.5 hPa | 0 mm | - | 525 W/m² | - |
| 1777820223 | 17.22° C | 53% | 1014.8 hPa | 0 mm | - | 511 W/m² | - |
| 1777819920 | 17.22° C | 52% | 1014.8 hPa | 0 mm | - | 498 W/m² | - |
* Rain latest hour (hover to see other rain measurements)
** Current wind speed in m/s (hover to see current wind gust speed)